Location: Malmö
(55.6050°N, 13.0038°E)
Time: 23:39:33
(UTC+01:00)

ISS - Pass Details

Date: 01 August 2017
Orbit: 402 x 407 km, 51.6° (Epoch: 22 January)

Event Time Altitude Azimuth Distance (km) Brightness Sun altitude
Rises 23:32:28 0° 273° (W) 2,323 0.4 -13.5°
Reaches altitude 10° 23:34:47 10° 258° (WSW) 1,460 -0.9 -13.6°
Maximum altitude 23:37:28 24° 203° (SSW) 896 -2.5 -13.8°
Enters shadow 23:37:50 23° 192° (SSW) 909 -2.5 -13.8°
